2024-205Q

Last updated on Thu Nov 21 2024 00:02:06 GMT+0000 (Coordinated Universal Time)

1 61908U 24205Q 24325.59225002 .00011827 00000+0 63581-3 0 9992 2 61908 97.4771 37.6157 0014683 254.7505 105.2104 15.14944439 1390
UTC large
Height (km)
Speed (km/s)
/
Latitude / Longitude
Inclination (degrees)
Orbital Period (minutes)
Azimuth
Elevation
Range (km)
Doppler Factor

Next 0 passes for location: London (51.5072 / 0.1276)

Sorry there are no passes over London.